This demonstration page uses our WeatherBlox Daily Observations layout. Learn more.

Left ArrowRight Arrow

44.8408, -93.29828

Hourly Observations for May 31, 2016

Temp ( °F °C ) Dew Point ( °F °C ) Humidity (%) Winds ( mph kmh ) Pressure ( in mb ) Visibility ( mi km ) Precip ( " mm )
12:53 am 00:53 Mostly Cloudy 71 21.7 57 13.9 61 61 SSE 15 24 29.87 1011 10 16 0.00 0.00
1:53 am 01:53 Mostly Cloudy 69 20.6 57 13.9 66 66 SSE 18 30 29.85 1011 10 16 0.00 0.00
2:53 am 02:53 Mostly Cloudy 68 20 57 13.9 68 68 SSE 10 17 29.83 1010 10 16 0.00 0.00
3:53 am 03:53 Mostly Cloudy 68 20 56 13.3 65 65 SSE 6 9 29.83 1010 10 16 0.00 0.00
4:53 am 04:53 Mostly Cloudy 67 19.4 57 13.9 71 71 SE 10 17 29.85 1011 10 16 0.00 0.00
5:53 am 05:53 Mostly Cloudy 66 18.9 57 13.9 73 73 S 5 7 29.85 1011 10 16 0.00 0.00
6:53 am 06:53 Cloudy 66 18.9 57 13.9 73 73 SE 9 15 29.85 1011 10 16 0.00 0.00
7:53 am 07:53 Cloudy 66 18.9 57 13.9 73 73 SSE 12 19 29.86 1011 10 16 0.00 0.03
8:53 am 08:53 Cloudy with Light Rain 64 17.8 61 16.1 90 90 SSE 9 15 29.86 1011 10 16 0.02 0.51
9:34 am 09:34 Cloudy with Light Rain 64 18 61 16 88 88 S 14 22 29.88 1012 10 16 0.00 0.00
9:49 am 09:49 Cloudy 64 18 61 16 88 88 S 16 26 29.88 1012 10 16 0.00 0.03
9:53 am 09:53 Cloudy 65 18.3 61 16.1 87 87 S 13 20 29.87 1012 10 16 0.00 0.03
10:04 am 10:04 Cloudy 66 18.9 61 16.1 84 84 S 10 17 29.88 1012 10 16 0.00 0.00
10:29 am 10:29 Cloudy 67 19.4 61 16.1 81 81 S 10 17 29.88 1012 10 16 0.00 0.00
10:38 am 10:38 Cloudy 66 19 61 16 83 83 S 9 15 29.88 1012 10 16 0.00 0.00
10:53 am 10:53 Cloudy 68 20 61 16.1 78 78 S 7 11 29.85 1011 10 16 0.00 0.00
11:53 am 11:53 Cloudy with Light Rain 69 20.6 61 16.1 76 76 SW 10 17 29.86 1011 10 16 0.00 0.03
12:30 pm 12:30 Cloudy 70 21 61 16 73 73 SW 9 15 29.88 1012 10 16 0.00 0.00
12:53 pm 12:53 Cloudy 70 21.1 60 15.6 71 71 WSW 10 17 29.86 1011 10 16 0.00 0.03
1:53 pm 13:53 Cloudy 71 21.7 60 15.6 68 68 SW 13 20 29.85 1011 10 16 0.00 0.03
2:53 pm 14:53 Cloudy with Light Rain 70 21.1 61 16.1 73 73 WSW 10 17 29.84 1010 10 16 0.00 0.03
3:53 pm 15:53 Mostly Cloudy 69 20.6 60 15.6 73 73 WSW 6 9 29.85 1011 10 16 0.00 0.03
4:53 pm 16:53 Mostly Cloudy 71 21.7 60 15.6 68 68 S 8 13 29.83 1010 10 16 0.00 0.00
5:53 pm 17:53 Mostly Cloudy 72 22.2 56 13.3 57 57 SW 9 15 29.82 1010 10 16 0.00 0.00
6:53 pm 18:53 Mostly Cloudy 72 22.2 56 13.3 57 57 VRB 6 9 29.82 1010 10 16 0.00 0.00
7:53 pm 19:53 Mostly Cloudy 72 22.2 57 13.9 59 59 S 7 11 29.83 1010 10 16 0.00 0.00
8:53 pm 20:53 Mostly Cloudy 70 21.1 58 14.4 66 66 SE 7 11 29.83 1010 10 16 0.00 0.00
9:53 pm 21:53 Mostly Clear 68 20 59 15 73 73 SSE 9 15 29.85 1011 10 16 0.00 0.00
10:53 pm 22:53 Mostly Clear 67 19.4 59 15 76 76 S 8 13 29.85 1011 10 16 0.00 0.00
11:53 pm 23:53 Mostly Clear 65 18.3 58 14.4 78 78 S 6 9 29.84 1010 10 16 0.00 0.00

Powered by AerisWeather